Location: Banksville Park
(38.5557°N, 75.1182°W)
Time: 22:48:40
(UTC+00:00)

Cosmos 1763 Rocket - Pass Details

Date: 19 September 2020
Orbit: 733 x 779 km, 74.0° (Epoch: 20 October)

Event Time Altitude Azimuth Distance (km) Brightness Sun altitude
Exits shadow 08:58:51 11° 182° (S) 2,288 5.7 -21.3°
Maximum altitude 09:03:56 58° 104° (ESE) 909 4.1 -20.4°
Drops below altitude 10° 09:09:08 10° 27° (NNE) 2,335 6.6 -19.4°
Sets 09:11:33 0° 23° (NNE) 3,264 7.4 -19.0°
